When you browse on this site, cookies collect data to enhance your experience and personalize the content and advertising you see.
Visit our Privacy Policy to learn more. By continuing to use the site, you agree to this use of cookies and data.
  • Em Portugal
  • Lista de países
  • Para 7 dias
  • Temperatura da água
  • Mapas de satélite
  • Mapa do tempo
  • Widgets de tempo
  • user-avatar
    Iniciar Sessão

    Previsão horária em Osieczow

    Hoje, 19 Dezembro, Quarta-feira

    Tempo Temperatura Precipitação Vento Pressão Humidade
    00:00 -1°C° 0 mm 2 m/s 750 mmHg 91%
    01:00 -1°C° 0 mm 3 m/s 750 mmHg 91%
    02:00 -1°C° 0 mm 3 m/s 750 mmHg 90%
    03:00 -1°C° 0 mm 3 m/s 749 mmHg 90%
    04:00 -2°C° 0 mm 3 m/s 749 mmHg 90%
    05:00 -2°C° 0 mm 3 m/s 749 mmHg 89%
    06:00 -2°C° 0 mm 4 m/s 748 mmHg 88%
    07:00 -2°C° 0 mm 4 m/s 748 mmHg 87%
    08:00 -2°C° 0 mm 4 m/s 748 mmHg 84%
    09:00 -1°C° 0 mm 4 m/s 748 mmHg 80%
    10:00 -1°C° 0 mm 5 m/s 748 mmHg 77%
    11:00 0°C° 0 mm 4 m/s 748 mmHg 75%
    12:00 0°C° 0 mm 4 m/s 747 mmHg 74%
    13:00 +1°C° 0 mm 4 m/s 747 mmHg 72%
    14:00 0°C° 0 mm 4 m/s 747 mmHg 74%
    15:00 0°C° 0 mm 4 m/s 747 mmHg 76%
    16:00 -1°C° 0 mm 4 m/s 746 mmHg 78%
    17:00 0°C° 0 mm 3 m/s 746 mmHg 78%
    18:00 0°C° 0 mm 3 m/s 746 mmHg 78%
    19:00 0°C° 0 mm 3 m/s 746 mmHg 79%
    20:00 0°C° 0.1 mm 3 m/s 746 mmHg 79%
    21:00 0°C° 0.1 mm 3 m/s 746 mmHg 79%
    22:00 0°C° 0.1 mm 3 m/s 746 mmHg 80%
    23:00 -1°C° 0.1 mm 3 m/s 746 mmHg 80%

    Amanhã, 20 Dezembro, Quinta-feira

    Tempo Temperatura Precipitação Vento Pressão Humidade
    00:00 -1°C° 0.1 mm 3 m/s 746 mmHg 80%
    01:00 -1°C° 0.1 mm 3 m/s 746 mmHg 80%
    02:00 -1°C° 0.1 mm 3 m/s 746 mmHg 80%
    03:00 -1°C° 0.1 mm 3 m/s 745 mmHg 81%
    04:00 -1°C° 0.1 mm 3 m/s 745 mmHg 81%
    05:00 -1°C° 0.1 mm 2 m/s 745 mmHg 82%
    06:00 -1°C° 0.1 mm 2 m/s 745 mmHg 82%
    07:00 -1°C° 0.1 mm 2 m/s 745 mmHg 82%
    08:00 -1°C° 0.1 mm 3 m/s 745 mmHg 82%
    09:00 -1°C° 0.1 mm 3 m/s 745 mmHg 82%
    10:00 -1°C° 0.1 mm 3 m/s 746 mmHg 82%
    11:00 0°C° 0.3 mm 3 m/s 745 mmHg 83%
    12:00 0°C° 0.3 mm 3 m/s 745 mmHg 84%
    13:00 0°C° 0.3 mm 3 m/s 745 mmHg 85%
    14:00 0°C° 0.1 mm 3 m/s 745 mmHg 86%
    15:00 0°C° 0.1 mm 3 m/s 745 mmHg 87%
    16:00 0°C° 0.1 mm 3 m/s 745 mmHg 88%
    17:00 0°C° 0 mm 3 m/s 745 mmHg 88%
    18:00 +1°C° 0 mm 3 m/s 745 mmHg 88%
    19:00 +1°C° 0 mm 3 m/s 746 mmHg 88%
    20:00 0°C° 0 mm 4 m/s 746 mmHg 88%
    21:00 0°C° 0 mm 4 m/s 746 mmHg 88%
    22:00 0°C° 0 mm 4 m/s 746 mmHg 88%
    23:00 +1°C° 0 mm 4 m/s 746 mmHg 88%

    Depois de amanhã, 21 Dezembro, Sexta-feira

    Tempo Temperatura Precipitação Vento Pressão Humidade
    00:00 +1°C° 0 mm 4 m/s 746 mmHg 88%
    01:00 +1°C° 0 mm 4 m/s 746 mmHg 88%
    02:00 +1°C° 0 mm 4 m/s 745 mmHg 88%
    03:00 +1°C° 0 mm 4 m/s 745 mmHg 87%
    04:00 0°C° 0 mm 4 m/s 745 mmHg 87%
    05:00 +1°C° 0 mm 4 m/s 745 mmHg 87%
    06:00 +1°C° 0 mm 4 m/s 744 mmHg 86%
    07:00 +1°C° 0 mm 4 m/s 744 mmHg 86%
    08:00 +1°C° 0 mm 4 m/s 744 mmHg 85%
    09:00 +1°C° 0 mm 4 m/s 744 mmHg 85%
    10:00 +3°C° 0 mm 4 m/s 743 mmHg 84%
    11:00 +3°C° 0.2 mm 4 m/s 743 mmHg 84%
    12:00 +3°C° 0.2 mm 4 m/s 742 mmHg 84%
    13:00 +4°C° 0.2 mm 4 m/s 741 mmHg 84%
    14:00 +2°C° 0.5 mm 5 m/s 740 mmHg 84%
    15:00 +2°C° 0.5 mm 5 m/s 740 mmHg 85%
    16:00 +2°C° 0.5 mm 5 m/s 739 mmHg 85%
    17:00 +3°C° 1.2 mm 5 m/s 738 mmHg 85%
    18:00 +3°C° 1.2 mm 6 m/s 737 mmHg 86%
    19:00 +4°C° 1.2 mm 6 m/s 737 mmHg 86%
    20:00 +4°C° 0.2 mm 6 m/s 737 mmHg 86%
    21:00 +5°C° 0.2 mm 6 m/s 737 mmHg 85%
    22:00 +7°C° 0.2 mm 6 m/s 737 mmHg 85%
    23:00 +7°C° 0.1 mm 6 m/s 737 mmHg 83%

    22 Dezembro, Sábado

    Tempo Temperatura Precipitação Vento Pressão Humidade
    00:00 +5°C° 0.1 mm 6 m/s 738 mmHg 82%
    01:00 +5°C° 0.1 mm 6 m/s 738 mmHg 80%
    02:00 +4°C° 0 mm 6 m/s 738 mmHg 80%
    03:00 +4°C° 0 mm 6 m/s 739 mmHg 80%
    04:00 +4°C° 0 mm 6 m/s 739 mmHg 80%
    05:00 +4°C° 0 mm 6 m/s 739 mmHg 80%
    06:00 +5°C° 0 mm 5 m/s 739 mmHg 81%
    07:00 +5°C° 0 mm 5 m/s 739 mmHg 81%
    08:00 +5°C° 0 mm 5 m/s 739 mmHg 80%
    09:00 +5°C° 0 mm 5 m/s 739 mmHg 79%
    10:00 +6°C° 0 mm 5 m/s 738 mmHg 79%
    11:00 +6°C° 0.4 mm 5 m/s 738 mmHg 81%
    12:00 +6°C° 0.4 mm 5 m/s 737 mmHg 82%
    13:00 +7°C° 0.4 mm 5 m/s 736 mmHg 84%
    14:00 +7°C° 0.9 mm 6 m/s 736 mmHg 83%
    15:00 +7°C° 0.9 mm 6 m/s 736 mmHg 81%
    16:00 +6°C° 0.9 mm 7 m/s 736 mmHg 79%
    17:00 +6°C° 0 mm 7 m/s 737 mmHg 79%
    18:00 +5°C° 0 mm 7 m/s 738 mmHg 78%
    19:00 +5°C° 0 mm 7 m/s 738 mmHg 78%
    20:00 +5°C° 0.1 mm 7 m/s 739 mmHg 79%
    21:00 +5°C° 0.1 mm 7 m/s 739 mmHg 80%
    22:00 +4°C° 0.1 mm 7 m/s 740 mmHg 81%
    23:00 +4°C° 0.1 mm 7 m/s 741 mmHg 81%

    23 Dezembro, Domingo

    Tempo Temperatura Precipitação Vento Pressão Humidade
    00:00 +4°C° 0.1 mm 7 m/s 741 mmHg 81%
    01:00 +4°C° 0.1 mm 7 m/s 741 mmHg 81%
    02:00 +4°C° 0 mm 7 m/s 742 mmHg 81%
    03:00 +4°C° 0 mm 7 m/s 742 mmHg 81%
    04:00 +4°C° 0 mm 7 m/s 742 mmHg 81%
    05:00 +3°C° 0.1 mm 7 m/s 743 mmHg 82%
    06:00 +3°C° 0.1 mm 6 m/s 743 mmHg 83%
    07:00 +3°C° 0.1 mm 6 m/s 743 mmHg 84%
    08:00 +3°C° 0 mm 6 m/s 744 mmHg 82%
    09:00 +3°C° 0 mm 6 m/s 744 mmHg 81%
    10:00 +4°C° 0 mm 7 m/s 744 mmHg 79%
    11:00 +4°C° 0.1 mm 6 m/s 744 mmHg 79%
    12:00 +4°C° 0.1 mm 6 m/s 744 mmHg 78%
    13:00 +4°C° 0.1 mm 6 m/s 744 mmHg 77%
    14:00 +4°C° 0.1 mm 6 m/s 744 mmHg 78%
    15:00 +4°C° 0.1 mm 6 m/s 744 mmHg 79%
    16:00 +5°C° 0.1 mm 5 m/s 745 mmHg 80%
    17:00 +5°C° 0.1 mm 5 m/s 745 mmHg 80%
    18:00 +3°C° 0.1 mm 6 m/s 745 mmHg 79%
    19:00 +3°C° 0.1 mm 6 m/s 745 mmHg 79%
    20:00 +3°C° 0 mm 6 m/s 745 mmHg 80%
    21:00 +3°C° 0 mm 6 m/s 746 mmHg 81%
    22:00 +3°C° 0 mm 6 m/s 746 mmHg 82%
    23:00 +2°C° 0 mm 5 m/s 746 mmHg 83%

    24 Dezembro, Segunda-feira

    Tempo Temperatura Precipitação Vento Pressão Humidade
    00:00 +2°C° 0 mm 5 m/s 746 mmHg 85%
    01:00 +3°C° 0 mm 4 m/s 747 mmHg 86%
    02:00 +3°C° 0 mm 4 m/s 747 mmHg 87%
    03:00 +3°C° 0 mm 4 m/s 747 mmHg 89%
    04:00 +3°C° 0 mm 3 m/s 747 mmHg 90%
    05:00 +3°C° 0 mm 3 m/s 747 mmHg 90%
    06:00 +3°C° 0 mm 3 m/s 747 mmHg 90%
    07:00 +3°C° 0 mm 3 m/s 747 mmHg 91%
    08:00 +3°C° 0.1 mm 3 m/s 747 mmHg 90%
    09:00 +3°C° 0.1 mm 3 m/s 747 mmHg 90%
    10:00 +3°C° 0.1 mm 3 m/s 748 mmHg 90%
    11:00 +3°C° 0.1 mm 3 m/s 747 mmHg 88%
    12:00 +4°C° 0.1 mm 3 m/s 747 mmHg 87%
    13:00 +4°C° 0.1 mm 3 m/s 747 mmHg 85%
    14:00 +4°C° 0.1 mm 3 m/s 747 mmHg 86%
    15:00 +3°C° 0.1 mm 3 m/s 747 mmHg 86%
    16:00 +3°C° 0.1 mm 3 m/s 748 mmHg 86%
    17:00 +3°C° 0 mm 3 m/s 748 mmHg 87%
    18:00 +3°C° 0 mm 3 m/s 748 mmHg 87%
    19:00 +2°C° 0 mm 3 m/s 748 mmHg 87%
    20:00 +2°C° 0 mm 3 m/s 748 mmHg 88%
    21:00 +2°C° 0 mm 3 m/s 748 mmHg 90%
    22:00 +2°C° 0 mm 3 m/s 748 mmHg 91%
    23:00 +1°C° 0 mm 3 m/s 748 mmHg 91%
    Mostrar mais